sat.trackr.live / text

‹ back to catalog

RASSVET-3 5

NORAD 68364 · 2026-061E

PAYLOAD ACTIVE UNKNOWN

§ Identity

Operator
Country
CIS
Launch date
2026-03-23
Launch site
PLMSC
Launch vehicle
Mass (kg)
RCS (m²)

External: N2YO · Heavens-Above · Gunter

§ Orbital elements

Epoch: 2026-09-20T00:53:06.552096Z

Period
94.84 min
Inclination
82.2936°
Eccentricity
0.0001935
Mean motion
15.18414334 rev/d
Perigee alt
509.3 km
Apogee alt
512.0 km
Semi-major
6,888.8 km
B*
9.5926e-5
RAAN
278.3398°
Arg perigee
67.2751°
Mean anomaly
292.8687°
Rev number
2,778

§ Raw data

RASSVET-3 51 68364U 26061E   26263.03688139  .00002003  00000+0  95926-4 0  99982 68364  82.2936 278.3398 0001935  67.2751 292.8687 15.18414334 27785

JSON: /api/v1/satellites/68364 · /tle

For live sub-satellite position, see the globe view (requires WebGL).

§ Visibility from observer

Set your observer location to see the next 7 days of passes ≥ 10°. The values pass through the URL so the page stays shareable.

No JS? Fill the form by hand. The geolocation button needs JavaScript.